INTELSAT 33E DEB, 64402

Orbit data source: Space-Track

INTELSAT 33E DEB, 64402 is space debris in GEO originally from a launch on Wed, 24 Aug 2016 UTC launched from the French Guiana (FRGUI). Debris objects in space refer to the collection of defunct objects orbiting the Earth. Examples of debris include non-operational satellites, rocket bodies, and fragments generated from explosions, collisions, or faulty payload assembly.

Not visible in the next 10 days
Identifier
64402, 2016-053AG
Orbit
GEO
Country
Flag of UnknownUnknown / ITSO
Related business
Manufacturer
Boeing/ES
Mission
Spacecraft
Bus & Motor
Unknown
Mass
Unknown
Launch date (UTC)
2016-08-24 (9 years ago)
Launch vehicle
Unknown
Launch site
French Guiana (FRGUI)
Object type
Payload
Rocket body
Debris
Shape & HBR
Unknown shape, 1.1 m
Radar Cross Section
RCS unknown

Expand to show TLE details & history
Last TLE update: 17 hours ago

TLE from 17 hours ago
0 INTELSAT 33E DEB
1 64402U 16053AG  25291.74446489  .00000007  00000-0  00000-0 0  9993
2 64402   0.8851  72.8153 0130712 102.2950 185.0351  0.98353209  3497
Epoch: 2025-10-18T17:52Z
TLE epoch observation values (Epoch: 2025-10-18T17:52:01.766Z)
Latitude
-0.83044°
Longitude
64.52339°
Altitude
36,891.039 km
Speed
3.015 km/s
True Right ascension
00h 00m 00s
True Declination
0° 49' 47"
Sunlit
Object was in daylight at epoch
Visualization orbit readout
Latitude
Unknown
Longitude
Unknown
Altitude
Unknown
Speed
Unknown
Apparent Right ascension
Unknown
Apparent Declination
Unknown
Sunlit
N/A
Visualization observer readout
Local Sidereal Time
05:59:01
Azimuth
Unknown
Elevation
Unknown
Doppler factor
Unknown
Orbital elements
Apogee altitude
36,892.525 km
Perigee altitude
35,775.921 km
Semi-major axis
42,712.36 km
Eccentricity
0.01307
Inclination
0.8851°
RAAN
72.8153°
Arg. of periapsis
102.295°
True anomaly
184.90575°
Mean anomaly
185.0351°
Eccentric anomaly
184.97021°
Mean motion
0.24587 °/min
Orbital period
1,464.16 mins
BSTAR
0
Loading maneuver chart data...
Computing Atmospheric mass density...
Loading historical data...
Loading historical data...
Loading historical data...
Loading historical data...
Loading historical data...
Loading historical data...
Loading historical data...

Documentation

Showing up to 5 results
|